This is the latest recevied weather packets stored in our database for station/object KJ4RDP-13. If no packets are shown the sender has not sent any weather packets the latest 10 day(s).
| Time | Temp. | Humidity | Pressure | Rain* | Wind** | Luminosity | Snow |
|---|---|---|---|---|---|---|---|
| 1777810658 | 5.56° C | 90% | 1019.3 hPa | 0 mm | - | 146 W/m² | - |
| 1777810355 | 5° C | 94% | 1018.9 hPa | 0 mm | - | 131 W/m² | - |
| 1777810051 | 4.44° C | 92% | 1019.3 hPa | 0 mm | - | 115 W/m² | - |
| 1777809749 | 5° C | 90% | 1019.3 hPa | 0 mm | - | 102 W/m² | - |
| 1777809446 | 3.89° C | 97% | 1019.3 hPa | 0 mm | - | 88 W/m² | - |
| 1777809144 | 3.89° C | 99% | 1019.3 hPa | 0 mm | - | 78 W/m² | - |
| 1777808841 | 2.22° C | 99% | 1018.9 hPa | 0 mm | - | 52 W/m² | - |
| 1777808538 | 1.67° C | 99% | 1018.9 hPa | 0 mm | - | 68 W/m² | - |
| 1777808235 | 2.22° C | 99% | 1018.9 hPa | 0 mm | - | 45 W/m² | - |
| 1777807934 | 2.22° C | 99% | 1018.9 hPa | 0 mm | - | 28 W/m² | - |
| 1777807631 | 1.11° C | 99% | 1018.5 hPa | 0 mm | - | 26 W/m² | - |
| 1777807328 | 0.56° C | 99% | 1018.5 hPa | 0 mm | - | 24 W/m² | - |
| 1777807024 | 0° C | 99% | 1018.5 hPa | 0 mm | - | 23 W/m² | - |
| 1777806721 | -0.56° C | 99% | 1018.5 hPa | 0 mm | - | 19 W/m² | - |
| 1777806417 | 0° C | 99% | 1018.5 hPa | 0 mm | - | 16 W/m² | - |
| 1777806114 | 0° C | 99% | 1018.5 hPa | 0 mm | - | 14 W/m² | - |
| 1777805810 | -0.56° C | 99% | 1018.5 hPa | 0 mm | - | 12 W/m² | - |
| 1777805507 | -0.56° C | 99% | 1018.2 hPa | 0 mm | - | 9 W/m² | - |
| 1777805205 | -0.56° C | 99% | 1018.2 hPa | 0 mm | - | 6 W/m² | - |
| 1777804903 | 0° C | 99% | 1018.2 hPa | 0 mm | - | 3 W/m² | - |
| 1777804601 | 0° C | 99% | 1018.2 hPa | 0 mm | - | 2 W/m² | - |
| 1777804298 | 0° C | 99% | 1018.2 hPa | 0 mm | - | 0 W/m² | - |
| 1777803995 | 0° C | 99% | 1018.2 hPa | 0 mm | - | 0 W/m² | - |
| 1777803692 | 0° C | 99% | 1018.2 hPa | 0 mm | - | 0 W/m² | - |
| 1777803387 | 0° C | 99% | 1017.8 hPa | 0 mm | - | 0 W/m² | - |
* Rain latest hour (hover to see other rain measurements)
** Current wind speed in m/s (hover to see current wind gust speed)